カタログに戻る

CZ-6A DEB

運用中SSO
NORAD 55524·DEBRIS·🇨🇳 China

打ち上げ Nov 11, 2022 から Taiyuan Satellite Launch Center

Loading…

次のパス (今後24時間)

TLE

最新Source: Space-Track

元期: Sep 14, 2026, 11:20 UTC

1 55524U 22151XW  26257.47273877  .00001734  00000-0  87467-3 0  9999
2 55524  98.8521 262.3022 0055022  76.3903 284.3391 14.16810839192491

AllMySatでCZ-6A DEBをリアルタイム追跡

Download on the App Store